When you browse on this site, cookies collect data to enhance your experience and personalize the content and advertising you see.
Visit our Privacy Policy to learn more. By continuing to use the site, you agree to this use of cookies and data.
  • En España
  • Lista de países
  • Para 7 días
  • Temperatura del agua
  • El tiempo en el mapa
  • Informadores
  • user-avatar
    Iniciar sesión

    Tiempo cada hora Obock

    Hoy, 21 Octubre, Lunes

    Tiempo Temperatura Precipitaciones Viento Presión Humedad
    00:00 +30°C° 0 mm 3 mps 755 mmHg 66%
    01:00 +30°C° 0 mm 3 mps 755 mmHg 66%
    02:00 +30°C° 0 mm 3 mps 755 mmHg 67%
    03:00 +30°C° 0 mm 3 mps 755 mmHg 67%
    04:00 +30°C° 0 mm 4 mps 755 mmHg 69%
    05:00 +30°C° 0 mm 4 mps 756 mmHg 72%
    06:00 +30°C° 0 mm 4 mps 756 mmHg 74%
    07:00 +30°C° 0 mm 4 mps 756 mmHg 70%
    08:00 +32°C° 0 mm 5 mps 757 mmHg 66%
    09:00 +33°C° 0 mm 5 mps 757 mmHg 62%
    10:00 +33°C° 0 mm 5 mps 757 mmHg 59%
    11:00 +34°C° 0 mm 5 mps 756 mmHg 56%
    12:00 +34°C° 0 mm 5 mps 756 mmHg 54%
    13:00 +34°C° 0 mm 5 mps 755 mmHg 52%
    14:00 +34°C° 0 mm 4 mps 754 mmHg 50%
    15:00 +34°C° 0 mm 4 mps 753 mmHg 48%
    16:00 +34°C° 0 mm 4 mps 754 mmHg 51%
    17:00 +33°C° 0 mm 4 mps 754 mmHg 53%
    18:00 +33°C° 0 mm 4 mps 754 mmHg 55%
    19:00 +32°C° 0 mm 4 mps 754 mmHg 56%
    20:00 +32°C° 0 mm 4 mps 754 mmHg 57%
    21:00 +32°C° 0 mm 4 mps 755 mmHg 57%
    22:00 +31°C° 0 mm 3 mps 755 mmHg 58%
    23:00 +31°C° 0 mm 3 mps 755 mmHg 59%

    Mañana, 22 Octubre, Martes

    Tiempo Temperatura Precipitaciones Viento Presión Humedad
    00:00 +30°C° 0 mm 3 mps 755 mmHg 59%
    01:00 +30°C° 0 mm 3 mps 755 mmHg 59%
    02:00 +30°C° 0 mm 3 mps 754 mmHg 59%
    03:00 +30°C° 0 mm 3 mps 754 mmHg 59%
    04:00 +30°C° 0 mm 3 mps 754 mmHg 58%
    05:00 +30°C° 0 mm 3 mps 755 mmHg 58%
    06:00 +29°C° 0 mm 3 mps 755 mmHg 58%
    07:00 +30°C° 0 mm 3 mps 755 mmHg 54%
    08:00 +32°C° 0 mm 4 mps 756 mmHg 50%
    09:00 +33°C° 0 mm 4 mps 756 mmHg 46%
    10:00 +34°C° 0 mm 4 mps 756 mmHg 44%
    11:00 +34°C° 0 mm 4 mps 755 mmHg 42%
    12:00 +35°C° 0 mm 4 mps 755 mmHg 41%
    13:00 +35°C° 0 mm 4 mps 754 mmHg 41%
    14:00 +35°C° 0 mm 4 mps 754 mmHg 41%
    15:00 +35°C° 0 mm 4 mps 753 mmHg 41%
    16:00 +34°C° 0 mm 4 mps 753 mmHg 44%
    17:00 +33°C° 0 mm 4 mps 753 mmHg 47%
    18:00 +33°C° 0 mm 4 mps 753 mmHg 49%
    19:00 +32°C° 0 mm 4 mps 754 mmHg 51%
    20:00 +31°C° 0 mm 3 mps 754 mmHg 54%
    21:00 +31°C° 0 mm 3 mps 755 mmHg 56%
    22:00 +31°C° 0 mm 3 mps 755 mmHg 56%
    23:00 +30°C° 0 mm 2 mps 755 mmHg 57%

    Pasado mañana, 23 Octubre, Miércoles

    Tiempo Temperatura Precipitaciones Viento Presión Humedad
    00:00 +30°C° 0 mm 2 mps 755 mmHg 57%
    01:00 +30°C° 0 mm 2 mps 754 mmHg 58%
    02:00 +30°C° 0 mm 2 mps 754 mmHg 58%
    03:00 +30°C° 0 mm 2 mps 754 mmHg 58%
    04:00 +29°C° 0 mm 1 mps 754 mmHg 58%
    05:00 +29°C° 0 mm 1 mps 755 mmHg 57%
    06:00 +29°C° 0 mm 1 mps 755 mmHg 57%
    07:00 +30°C° 0 mm 2 mps 755 mmHg 51%
    08:00 +31°C° 0 mm 2 mps 756 mmHg 46%
    09:00 +34°C° 0 mm 3 mps 756 mmHg 41%
    10:00 +34°C° 0 mm 3 mps 756 mmHg 40%
    11:00 +35°C° 0 mm 4 mps 755 mmHg 38%
    12:00 +35°C° 0 mm 4 mps 755 mmHg 37%
    13:00 +35°C° 0 mm 4 mps 754 mmHg 37%
    14:00 +35°C° 0 mm 4 mps 753 mmHg 36%
    15:00 +35°C° 0 mm 4 mps 753 mmHg 36%
    16:00 +34°C° 0 mm 4 mps 753 mmHg 39%
    17:00 +34°C° 0 mm 4 mps 753 mmHg 42%
    18:00 +33°C° 0 mm 3 mps 753 mmHg 45%
    19:00 +33°C° 0 mm 3 mps 754 mmHg 46%
    20:00 +31°C° 0 mm 3 mps 754 mmHg 47%
    21:00 +31°C° 0 mm 2 mps 755 mmHg 48%
    22:00 +31°C° 0 mm 2 mps 755 mmHg 50%
    23:00 +31°C° 0 mm 2 mps 755 mmHg 51%

    24 Octubre, Jueves

    Tiempo Temperatura Precipitaciones Viento Presión Humedad
    00:00 +30°C° 0 mm 2 mps 755 mmHg 53%
    01:00 +30°C° 0 mm 2 mps 755 mmHg 54%
    02:00 +30°C° 0 mm 2 mps 755 mmHg 55%
    03:00 +30°C° 0 mm 2 mps 755 mmHg 56%
    04:00 +30°C° 0 mm 2 mps 755 mmHg 57%
    05:00 +29°C° 0 mm 2 mps 755 mmHg 57%
    06:00 +29°C° 0 mm 3 mps 756 mmHg 58%
    07:00 +30°C° 0 mm 3 mps 756 mmHg 54%
    08:00 +32°C° 0 mm 4 mps 756 mmHg 49%
    09:00 +33°C° 0 mm 4 mps 757 mmHg 45%
    10:00 +34°C° 0 mm 4 mps 756 mmHg 43%
    11:00 +34°C° 0 mm 4 mps 756 mmHg 41%
    12:00 +35°C° 0 mm 5 mps 755 mmHg 39%
    13:00 +35°C° 0 mm 5 mps 754 mmHg 38%
    14:00 +35°C° 0 mm 5 mps 754 mmHg 38%
    15:00 +35°C° 0 mm 5 mps 753 mmHg 37%
    16:00 +34°C° 0 mm 4 mps 754 mmHg 41%
    17:00 +33°C° 0 mm 4 mps 754 mmHg 44%
    18:00 +32°C° 0 mm 4 mps 754 mmHg 48%
    19:00 +31°C° 0 mm 3 mps 755 mmHg 49%
    20:00 +31°C° 0 mm 3 mps 755 mmHg 50%
    21:00 +31°C° 0 mm 2 mps 756 mmHg 50%
    22:00 +31°C° 0 mm 2 mps 755 mmHg 51%
    23:00 +30°C° 0 mm 2 mps 755 mmHg 52%

    25 Octubre, Viernes

    Tiempo Temperatura Precipitaciones Viento Presión Humedad
    00:00 +30°C° 0 mm 3 mps 755 mmHg 53%
    01:00 +30°C° 0 mm 2 mps 755 mmHg 55%
    02:00 +30°C° 0 mm 2 mps 755 mmHg 56%
    03:00 +29°C° 0 mm 2 mps 755 mmHg 57%
    04:00 +29°C° 0 mm 2 mps 755 mmHg 57%
    05:00 +29°C° 0 mm 3 mps 755 mmHg 58%
    06:00 +29°C° 0 mm 3 mps 755 mmHg 59%
    07:00 +30°C° 0 mm 3 mps 756 mmHg 54%
    08:00 +32°C° 0 mm 4 mps 756 mmHg 49%
    09:00 +33°C° 0 mm 4 mps 756 mmHg 45%
    10:00 +34°C° 0 mm 4 mps 756 mmHg 41%
    11:00 +35°C° 0 mm 4 mps 755 mmHg 37%
    12:00 +35°C° 0 mm 4 mps 754 mmHg 33%
    13:00 +35°C° 0 mm 4 mps 754 mmHg 32%
    14:00 +35°C° 0 mm 4 mps 753 mmHg 31%
    15:00 +35°C° 0 mm 4 mps 753 mmHg 30%
    16:00 +35°C° 0 mm 4 mps 753 mmHg 34%
    17:00 +34°C° 0 mm 4 mps 753 mmHg 38%
    18:00 +33°C° 0 mm 3 mps 754 mmHg 41%
    19:00 +31°C° 0 mm 3 mps 754 mmHg 43%
    20:00 +31°C° 0 mm 3 mps 754 mmHg 46%
    21:00 +31°C° 0 mm 3 mps 755 mmHg 48%
    22:00 +30°C° 0 mm 3 mps 755 mmHg 51%
    23:00 +30°C° 0 mm 3 mps 755 mmHg 53%

    26 Octubre, Sábado

    Tiempo Temperatura Precipitaciones Viento Presión Humedad
    00:00 +30°C° 0 mm 3 mps 755 mmHg 56%
    01:00 +29°C° 0 mm 2 mps 754 mmHg 58%
    02:00 +29°C° 0 mm 2 mps 754 mmHg 60%
    03:00 +29°C° 0 mm 2 mps 754 mmHg 62%
    04:00 +29°C° 0 mm 2 mps 754 mmHg 63%
    05:00 +28°C° 0 mm 2 mps 755 mmHg 65%
    06:00 +28°C° 0 mm 2 mps 755 mmHg 66%
    07:00 +29°C° 0 mm 2 mps 755 mmHg 59%
    08:00 +31°C° 0 mm 3 mps 756 mmHg 53%
    09:00 +33°C° 0 mm 3 mps 756 mmHg 46%
    10:00 +34°C° 0 mm 3 mps 756 mmHg 43%
    11:00 +34°C° 0 mm 3 mps 755 mmHg 40%
    12:00 +35°C° 0 mm 3 mps 754 mmHg 36%
    13:00 +35°C° 0 mm 4 mps 754 mmHg 36%
    14:00 +35°C° 0 mm 4 mps 753 mmHg 35%
    15:00 +35°C° 0 mm 4 mps 753 mmHg 34%
    16:00 +34°C° 0 mm 4 mps 753 mmHg 37%
    17:00 +34°C° 0 mm 4 mps 753 mmHg 39%
    18:00 +33°C° 0 mm 3 mps 753 mmHg 42%
    19:00 +33°C° 0 mm 3 mps 754 mmHg 44%
    20:00 +31°C° 0 mm 2 mps 754 mmHg 46%
    21:00 +31°C° 0 mm 2 mps 754 mmHg 49%
    22:00 +31°C° 0 mm 2 mps 754 mmHg 51%
    23:00 +30°C° 0 mm 1 mps 754 mmHg 54%

    27 Octubre, Domingo

    Tiempo Temperatura Precipitaciones Viento Presión Humedad
    00:00 +30°C° 0 mm 1 mps 754 mmHg 56%
    01:00 +30°C° 0 mm 1 mps 754 mmHg 58%
    02:00 +29°C° 0 mm 1 mps 754 mmHg 60%
    03:00 +29°C° 0 mm 1 mps 753 mmHg 62%
    04:00 +29°C° 0 mm 1 mps 754 mmHg 62%
    05:00 +28°C° 0 mm 1 mps 754 mmHg 62%
    06:00 +28°C° 0 mm 1 mps 755 mmHg 62%
    07:00 +30°C° 0 mm 2 mps 755 mmHg 56%
    08:00 +31°C° 0 mm 2 mps 755 mmHg 49%
    09:00 +33°C° 0 mm 3 mps 756 mmHg 43%
    10:00 +34°C° 0 mm 3 mps 755 mmHg 41%
    11:00 +35°C° 0 mm 3 mps 755 mmHg 39%
    12:00 +35°C° 0 mm 4 mps 754 mmHg 37%
    13:00 +35°C° 0 mm 4 mps 754 mmHg 37%
    14:00 +35°C° 0 mm 4 mps 753 mmHg 36%
    15:00 +35°C° 0 mm 4 mps 753 mmHg 35%
    16:00 +34°C° 0 mm 4 mps 753 mmHg 39%
    17:00 +34°C° 0 mm 4 mps 753 mmHg 42%
    18:00 +33°C° 0 mm 3 mps 753 mmHg 45%
    19:00 +31°C° 0 mm 3 mps 754 mmHg 46%
    20:00 +31°C° 0 mm 2 mps 754 mmHg 47%
    21:00 +31°C° 0 mm 2 mps 755 mmHg 48%
    22:00 +31°C° 0 mm 2 mps 754 mmHg 50%
    23:00 +30°C° 0 mm 2 mps 754 mmHg 52%
    Mostrar más